STARLINK-1231, 45212

Orbit data source: Space-Track

STARLINK-1231, 45212 is a payload satellite owned by SpaceX/Seattle (US) in LEO that was launched on Mon, 17 Feb 2020 UTC via an FALCON 9 launch vehicle from the Air Force Eastern Test Range (AFETR). Payload-class satellites include a variety of spacecraft equipped with specific instruments for various scientific and technological missions. These include communications satellites like Starlink; space stations such as the ISS; scientific satellites like the Hubble; Earth observation satellites from companies like Planet Labs, Umbra, and HawkEye 360; GPS; miniature CubeSats for education and research; and military/defense satellites.

Loading next visibility...
Identifier
45212, 2020-012AL
Orbit
LEO
Country
Flag of USUS
Related business
Manufacturer
SpaceX/Seattle
Mission
Partially operational Commercial Communications
Bus & Motor
STARLINK, Unknown motor
Mass
260 kg wet, ~248 kg dry
Launch date (UTC)
2020-02-17 (6 years ago)
Launch vehicle
FALCON 9
Launch site
Air Force Eastern Test Range (AFETR)
Object type
Payload
Rocket body
Debris
Shape & HBR
Box + 1 Pan, 10.1 m
Radar Cross Section
13.562 m², Large (>1 m²)

Expand to show TLE details & history
Last TLE update: 4 hours ago

TLE from 4 hours ago
0 STARLINK-1231
1 45212U 20012AL  26038.29687112  .00065644  00000-0  31119-2 0  9996
2 45212  53.0474 155.0825 0001512 314.0597  46.0272 15.18705291330605
Epoch: 2026-02-07T07:07Z
TLE epoch observation values (Epoch: 2026-02-07T07:07:29.664Z)
Latitude
-0.00008°
Longitude
-89.21358°
Altitude
509.913 km
Speed
7.611 km/s
True Right ascension
10h 20m 19s
True Declination
0° 00' 00"
Sunlit
Object was in full shadow at epoch
Visualization orbit readout
Latitude
Unknown
Longitude
Unknown
Altitude
Unknown
Speed
Unknown
Apparent Right ascension
Unknown
Apparent Declination
Unknown
Sunlit
N/A
Visualization observer readout
Local Sidereal Time
13:34:33
Azimuth
Unknown
Elevation
Unknown
Doppler factor
Unknown
Orbital elements
Apogee altitude
511.067 km
Perigee altitude
508.984 km
Semi-major axis
6,888.163 km
Eccentricity
0.00015
Inclination
53.0474°
RAAN
155.0825°
Arg. of periapsis
314.0597°
True anomaly
46.03967°
Mean anomaly
46.0272°
Eccentric anomaly
46.03344°
Mean motion
3.79654 °/min
Orbital period
94.82 mins
BSTAR
0.0031119
Loading maneuver chart data...
Computing Atmospheric mass density...

Documentation

Showing up to 5 results
|